Location: Gudip?du
(17.0263°N, 80.8301°E)
Time: 15:21:03
(UTC+00:00)

Cosmos 1833 Rocket - Pass Details

Date: 03 August 2024
Orbit: 830 x 840 km, 71.0° (Epoch: 12 September)

Event Time Altitude Azimuth Distance (km) Brightness Sun altitude
Rises 14:15:44 0° 328° (NNW) 3,387 6.8 -15.8°
Reaches altitude 10° 14:18:23 10° 319° (NW) 2,450 6.2 -16.4°
Maximum altitude 14:23:20 32° 257° (WSW) 1,393 4.3 -17.5°
Drops below altitude 10° 14:28:16 10° 195° (SSW) 2,442 5.0 -18.6°
Sets 14:30:56 0° 185° (S) 3,374 5.6 -19.1°
